This is the latest recevied weather packets stored in our database for station/object K5MGY. If no packets are shown the sender has not sent any weather packets the latest 1 day(s).
| Time | Temp. | Humidity | Pressure | Rain* | Wind** | Luminosity | Snow |
|---|---|---|---|---|---|---|---|
| 1778002874 | 28.89° C | 64% | 1029.4 hPa | 0 mm | 1.34 m/s, 157° | 632 W/m² | - |
| 1778002571 | 28.89° C | 64% | 1029.4 hPa | 0 mm | 0.89 m/s, 183° | 270 W/m² | - |
| 1778002268 | 28.89° C | 63% | 1029.5 hPa | 0 mm | 2.24 m/s, 146° | 374 W/m² | - |
| 1778001966 | 28.89° C | 64% | 1029.5 hPa | 0 mm | 0.89 m/s, 154° | 361 W/m² | - |
| 1778001662 | 28.89° C | 64% | 1029.6 hPa | 0 mm | 0.45 m/s, 152° | 257 W/m² | - |
| 1778001357 | 28.33° C | 65% | 1029.3 hPa | 0 mm | 0.45 m/s, 168° | 248 W/m² | - |
| 1778001054 | 28.33° C | 65% | 1029.5 hPa | 0 mm | 1.34 m/s, 217° | 308 W/m² | - |
| 1778000751 | 28.89° C | 64% | 1029.7 hPa | 0 mm | 1.34 m/s, 166° | 270 W/m² | - |
| 1778000447 | 28.89° C | 65% | 1029.6 hPa | 0 mm | 0.45 m/s, 124° | 312 W/m² | - |
| 1778000142 | 28.89° C | 64% | 1029.8 hPa | 0 mm | 1.34 m/s, 167° | 308 W/m² | - |
| 1777999838 | 28.89° C | 63% | 1029.6 hPa | 0 mm | 1.79 m/s, 231° | 301 W/m² | - |
| 1777999535 | 28.33° C | 66% | 1029.2 hPa | 0 mm | 0.45 m/s, 162° | 469 W/m² | - |
| 1777999232 | 28.33° C | 65% | 1029.3 hPa | 0 mm | 1.34 m/s, 255° | 442 W/m² | - |
| 1777998931 | 28.33° C | 64% | 1029.2 hPa | 0 mm | 2.24 m/s, 160° | 538 W/m² | - |
| 1777998627 | 27.78° C | 65% | 1029.5 hPa | 0 mm | 1.79 m/s, 202° | 510 W/m² | - |
| 1777998325 | 27.78° C | 67% | 1029.2 hPa | 0 mm | 0.89 m/s, 225° | 230 W/m² | - |
| 1777998018 | 27.22° C | 68% | 1029.4 hPa | 0 mm | 0.89 m/s, 162° | 511 W/m² | - |
| 1777997714 | 27.22° C | 69% | 1029.1 hPa | 0 mm | 1.34 m/s, 77° | 456 W/m² | - |
| 1777997411 | 27.22° C | 69% | 1029.3 hPa | 0 mm | 0.89 m/s, 180° | 398 W/m² | - |
| 1777997110 | 27.22° C | 69% | 1029.4 hPa | 0 mm | 1.34 m/s, 222° | 348 W/m² | - |
| 1777996806 | 26.67° C | 72% | 1029.2 hPa | 0 mm | 0.45 m/s, 178° | 423 W/m² | - |
| 1777996502 | 26.11° C | 71% | 1029.5 hPa | 0 mm | 0.89 m/s, 227° | 289 W/m² | - |
| 1777996199 | 26.11° C | 73% | 1029.4 hPa | 0 mm | 0.89 m/s, 212° | 233 W/m² | - |
| 1777995896 | 25.56° C | 73% | 1029.3 hPa | 0 mm | 0.89 m/s, 225° | 227 W/m² | - |
| 1777995591 | 25.56° C | 73% | 1029.4 hPa | 0 mm | 0.89 m/s, 248° | 198 W/m² | - |
* Rain latest hour (hover to see other rain measurements)
** Current wind speed in m/s (hover to see current wind gust speed)